TimeCST,TemperatureF,Dew PointF,Humidity,Sea Level PressureIn,VisibilityMPH,Wind Direction,Wind SpeedMPH,Gust SpeedMPH,PrecipitationIn,Events,Conditions,WindDirDegrees,DateUTC
12:24 AM,14.0,5.0,67,30.38,7.0,NNW,25.3,33.4,0.00,Snow,Light Snow,330,2014-01-21 06:24:00
12:49 AM,10.4,1.4,67,30.40,10.0,North,20.7,28.8,0.00,,Scattered Clouds,350,2014-01-21 06:49:00
12:53 AM,10.9,1.9,67,30.43,10.0,NNW,21.9,28.8,0.00,,Mostly Cloudy,340,2014-01-21 06:53:00
1:51 AM,8.6,-2.2,62,30.44,10.0,North,20.7,29.9,N/A,,Scattered Clouds,350,2014-01-21 07:51:00
1:53 AM,8.1,-2.0,64,30.47,10.0,North,19.6,29.9,N/A,,Scattered Clouds,350,2014-01-21 07:53:00
2:53 AM,6.1,-2.9,67,30.50,10.0,NNW,20.7,-,N/A,,Clear,340,2014-01-21 08:53:00
3:53 AM,5.0,-5.1,63,30.53,10.0,NNW,16.1,-,N/A,,Clear,340,2014-01-21 09:53:00
4:53 AM,3.9,-6.0,64,30.55,10.0,North,15.0,-,N/A,,Clear,350,2014-01-21 10:53:00
5:53 AM,1.9,-7.1,66,30.54,10.0,NNW,15.0,-,N/A,,Clear,340,2014-01-21 11:53:00
6:53 AM,1.0,-7.1,69,30.55,10.0,North,12.7,-,N/A,,Clear,350,2014-01-21 12:53:00
7:53 AM,1.0,-8.0,66,30.54,10.0,North,10.4,-,N/A,,Clear,350,2014-01-21 13:53:00
8:53 AM,3.0,-7.1,63,30.55,10.0,North,9.2,-,N/A,,Clear,350,2014-01-21 14:53:00
9:53 AM,5.0,-7.1,58,30.55,10.0,NW,5.8,-,N/A,,Clear,310,2014-01-21 15:53:00
10:53 AM,7.0,-7.1,53,30.53,10.0,Variable,3.5,-,N/A,,Clear,0,2014-01-21 16:53:00
11:53 AM,9.0,-7.1,48,30.49,10.0,Calm,Calm,-,N/A,,Clear,0,2014-01-21 17:53:00
12:53 PM,12.9,-6.0,43,30.42,10.0,SW,5.8,-,N/A,,Clear,230,2014-01-21 18:53:00
1:53 PM,15.1,-7.1,37,30.36,10.0,Variable,4.6,-,N/A,,Clear,0,2014-01-21 19:53:00
2:53 PM,17.1,-7.1,34,30.30,10.0,South,6.9,-,N/A,,Clear,170,2014-01-21 20:53:00
3:53 PM,19.0,-6.0,33,30.27,10.0,South,6.9,-,N/A,,Scattered Clouds,180,2014-01-21 21:53:00
4:53 PM,18.0,-5.1,36,30.25,10.0,South,9.2,-,N/A,,Scattered Clouds,180,2014-01-21 22:53:00
5:53 PM,19.0,-4.0,36,30.25,10.0,SSE,8.1,-,N/A,,Mostly Cloudy,160,2014-01-21 23:53:00
6:53 PM,19.9,-2.9,37,30.24,10.0,South,11.5,-,N/A,,Overcast,180,2014-01-22 00:53:00
7:53 PM,19.9,-2.0,38,30.23,10.0,South,11.5,-,N/A,,Overcast,190,2014-01-22 01:53:00
8:53 PM,21.0,-2.0,36,30.20,10.0,South,12.7,-,N/A,,Overcast,190,2014-01-22 02:53:00
9:53 PM,21.0,-0.9,38,30.18,10.0,South,9.2,-,N/A,,Overcast,190,2014-01-22 03:53:00
10:53 PM,21.9,1.0,40,30.17,10.0,SSW,9.2,-,N/A,,Overcast,200,2014-01-22 04:53:00
11:53 PM,21.9,1.0,40,30.15,10.0,SSW,9.2,-,N/A,,Overcast,200,2014-01-22 05:53:00